(°C)
(°C)
-7°
-7°
-8°
-8°
-8°
-8°
-7°
JZ
JZ
JZ
JZ
JZ
JZ
JZ
(km/h)
31-52
31-51
30-50
29-50
29-49
29-48
28-48
(mm)
3
0
0
0
0
0
0
(%)
25
12
4
6
6
6
7

Podizanje Sunca

/ -29.8°
sun-icon
UV 1
07:46
18:10
Opadajući mesec (201°)
18:55
09:24

METAR za 51.02°S 71.47°I (UACC)

Vreme Uslovi Temperatura/
Tačka rose
Vetar Vidljivost Prognoza Oblaci Pritisak Promena Neobrađeno
IFR 2°C / 0°C 220º 25kt 3000m Showers Snow Showers Rain 3.00mm precipitation Vertical Visibility of 0ft.
Broken Clouds 2200ft
1020 No Significant change. Runway 22: Wet or puddles, 51-100% contamination, friction coefficient 0.55. UACC 221442Z 22013MPS 3000 SHSNRA SCT010 BKN022CB 02/M00 Q1020 R22/29//55 NOSIG RMK QFE734/0978
IFR 1°C / 0°C 220º 23kt 1900m. Runway 22: Visual range is 2000m. Showers Snow Rain 3.00mm precipitation Vertical Visibility of 0ft.
Broken Clouds 2000ft
1020 Temporary: Visibility 1000. Showers Snow Rain . Broken Clouds 1100ft. Cumulonimbus RMK QFE733/0978 . Runway 22: Wet or puddles, 51-100% contamination, friction coefficient 0.55. UACC 221400Z 22012MPS 1900 R22/P2000 SHSNRA SCT008 BKN020CB 01/00 Q1020 R22/29//55 TEMPO 1000 SHSNRA BKN011CB RMK QFE733/0978
LIFR 1°C / 0°C 220º 25kt 1400m. Runway 22: Visual range is 2000m. Showers Snow Rain 3.00mm precipitation Vertical Visibility of 0ft.
Overcast 2000ft
1019 Temporary: Visibility 1000. Showers Snow Rain . Broken Clouds 1100ft. Cumulonimbus RMK QFE733/0978 . Runway 22: Wet or puddles, 51-100% contamination, friction coefficient 0.55. UACC 221330Z 22013MPS 1400 R22/P2000 SHSNRA BKN008 OVC020CB 01/M00 Q1019 R22/29//55 TEMPO 1000 SHSNRA BKN011CB RMK QFE733/0978
LIFR 1°C / 0°C 220º 25kt 1500m. Runway 22: Visual range is 2000m. Showers Snow Rain 3.00mm precipitation Vertical Visibility of 0ft.
Overcast 2100ft
1019 Temporary: Visibility 3000. Showers Snow Rain . Broken Clouds 1100ft. Cumulonimbus RMK QFE733/0978 . Runway 22: Clear and dry, , friction coefficient 0.70. UACC 221313Z 22013MPS 1500 R22/P2000 SHSNRA BKN010 OVC021CB 01/M00 Q1019 R22/0///70 TEMPO 3000 SHSNRA BKN011CB RMK QFE733/0978
MVFR 2°C / -1°C 220º 25kt 6000m Light Snow Light Rain 1.00mm precipitation Vertical Visibility of 0ft.
Overcast 2300ft
1019 No Significant change. Runway 22: Clear and dry, , friction coefficient 0.70. UACC 221230Z 22013MPS 6000 -SNRA BKN014 OVC023 02/M01 Q1019 R22/0///70 NOSIG RMK QFE733/0978
MVFR 2°C / -1°C 220º 23kt 7000m Light Snow Light Rain 1.00mm precipitation Vertical Visibility of 0ft.
Overcast 2500ft
1019 No Significant change. Runway 22: Clear and dry, , friction coefficient 0.70. UACC 221200Z 22012MPS 7000 -SNRA BKN017 OVC025 02/M01 Q1019 R22/0///70 NOSIG RMK QFE733/0978
MVFR 3°C / -2°C 220º 25kt >10km - Overcast 1900ft 1019 Temporary: Visibility 5000. Light Showers Snow Rain . Broken Clouds 1100ft. Cumulonimbus RMK QFE733/0977 . Runway 22: Clear and dry, , friction coefficient 0.70. UACC 221130Z 22013MPS 9999 OVC019 03/M02 Q1019 R22/0///70 TEMPO 5000 -SHSNRA BKN011CB RMK QFE733/0977
MVFR 3°C / -2°C 220º 23kt 9000m - Scattered Clouds 1600ft
Broken Clouds 3000ft
1019 Temporary: Visibility 5000. Light Showers Snow Rain . Broken Clouds 1100ft. Cumulonimbus RMK QFE733/0977 . Runway 22: Clear and dry, , friction coefficient 0.70. UACC 221100Z 22012MPS 9000 SCT016 BKN030 03/M02 Q1019 R22/0///70 TEMPO 5000 -SHSNRA BKN011CB RMK QFE733/0977
VFR 3°C / -2°C 220º 27kt 9000m - Scattered Clouds 1600ft
Broken Clouds 3600ft
1019 Temporary: Visibility 5000. Light Showers Snow Rain . Broken Clouds 1100ft. Cumulonimbus RMK QFE733/0977 . Runway 22: Clear and dry, , friction coefficient 0.70. UACC 221030Z 22014MPS 9000 SCT016 BKN036 03/M02 Q1019 R22/0///70 TEMPO 5000 -SHSNRA BKN011CB RMK QFE733/0977
MVFR 3°C / -2°C 230º 29kt 6000m Light Rain 1.00mm precipitation Vertical Visibility of 0ft.
Overcast 3000ft
1019 No Significant change. Runway 22: Clear and dry, , friction coefficient 0.70. UACC 221000Z 23015MPS 6000 -RA SCT016 OVC030 03/M02 Q1019 R22/0///70 NOSIG RMK QFE733/0977
VFR 4°C / -3°C 230º 27kt Gust 39kt >10km - Scattered Clouds 1500ft
Broken Clouds 4000ft
1019 No Significant change. Runway 22: Clear and dry, , friction coefficient 0.70. UACC 220943Z 23014G20MPS 9999 SCT015 BKN040 04/M03 Q1019 R22/0///70 NOSIG RMK QFE733/0977
VFR 4°C / -3°C 230º 27kt >10km - Scattered Clouds 1500ft
Broken Clouds 4000ft
1019 No Significant change. Runway 22: Clear and dry, , friction coefficient 0.70. UACC 220930Z 23014MPS 9999 SCT015 BKN040 04/M03 Q1019 R22/0///70 NOSIG RMK QFE733/0977
VFR 4°C / -3°C 230º 27kt >10km - Scattered Clouds 1500ft
Broken Clouds 4000ft
1019 No Significant change. Runway 22: Clear and dry, , friction coefficient 0.70. UACC 220900Z 23014MPS 9999 SCT015 BKN040 04/M03 Q1019 R22/0///70 NOSIG RMK QFE733/0977
VFR 5°C / -5°C 230º 27kt Gust 37kt >10km - Scattered Clouds 1500ft
Broken Clouds 4000ft
1019 No Significant change. Runway 22: Clear and dry, , friction coefficient 0.70. UACC 220830Z 23014G19MPS 9999 SCT015 BKN040 05/M05 Q1019 R22/0///70 NOSIG RMK QFE733/0977
VFR 4°C / -5°C 230º 25kt Gust 35kt >10km - Scattered Clouds 1500ft
Broken Clouds 4000ft
1019 No Significant change. Runway 22: Clear and dry, , friction coefficient 0.70. UACC 220800Z 23013G18MPS 9999 SCT015 BKN040 04/M05 Q1019 R22/0///70 NOSIG RMK QFE733/0977
VFR 5°C / -5°C 230º 25kt >10km - Scattered Clouds 1400ft
Broken Clouds 3600ft
1019 No Significant change. Runway 22: Clear and dry, , friction coefficient 0.70. UACC 220730Z 23013MPS 9999 SCT014 BKN036 05/M05 Q1019 R22/0///70 NOSIG RMK QFE733/0977
VFR 4°C / -4°C 230º 25kt >10km - Scattered Clouds 1200ft
Broken Clouds 3600ft
1019 No Significant change. Runway 22: Clear and dry, , friction coefficient 0.70. UACC 220700Z 23013MPS 9999 SCT012 BKN036 04/M04 Q1019 R22/0///70 NOSIG RMK QFE733/0977
VFR 4°C / -4°C 220º 27kt >10km - Scattered Clouds 1000ft
Broken Clouds 3600ft
1019 No Significant change. Runway 22: Clear and dry, , friction coefficient 0.70. UACC 220630Z 22014MPS 9999 SCT010 BKN036 04/M04 Q1019 R22/0///70 NOSIG RMK QFE733/0977
VFR 3°C / -5°C 230º 25kt >10km - Few Clouds 3000ft
Broken Clouds 4300ft
1019 No Significant change. Runway 22: Clear and dry, , friction coefficient 0.70. UACC 220600Z 23013MPS 9999 FEW030CB BKN043 03/M05 Q1019 R22/0///70 NOSIG RMK QFE733/0977
VFR 3°C / -4°C 220º 23kt Gust 33kt >10km - Scattered Clouds 3000ft
Broken Clouds 4300ft
1019 No Significant change. Runway 22: Clear and dry, , friction coefficient 0.70. UACC 220543Z 22012G17MPS 9999 SCT030CB BKN043 03/M04 Q1019 R22/0///70 NOSIG RMK QFE733/0977
VFR 3°C / -5°C 220º 21kt >10km - Scattered Clouds 3000ft
Broken Clouds 4300ft
1019 No Significant change. Runway 22: Clear and dry, , friction coefficient 0.70. UACC 220530Z 22011MPS 9999 SCT030CB BKN043 03/M05 Q1019 R22/0///70 NOSIG RMK QFE733/0977
VFR 3°C / -4°C 220º 19kt Gust 29kt >10km - Scattered Clouds 2600ft
Broken Clouds 3600ft
1019 No Significant change. Runway 22: Clear and dry, , friction coefficient 0.70. UACC 220512Z 22010G15MPS 9999 SCT026CB BKN036 03/M04 Q1019 R22/0///70 NOSIG RMK QFE733/0977
VFR 2°C / -4°C 210º 19kt >10km - Scattered Clouds 1600ft
Broken Clouds 3600ft
1019 No Significant change. Runway 22: Clear and dry, , friction coefficient 0.70. UACC 220500Z 21010MPS 9999 SCT016CB BKN036 02/M04 Q1019 R22/0///70 NOSIG RMK QFE733/0977
VFR 2°C / -3°C 220º 19kt >10km - Scattered Clouds 1600ft
Broken Clouds 3600ft
1019 No Significant change. Runway 22: Clear and dry, , friction coefficient 0.70. UACC 220430Z 22010MPS 9999 SCT016 BKN036CB 02/M03 Q1019 R22/0///70 NOSIG RMK QFE733/0977

IFR

2°C / 0°C

[Više]
Vetar 220º 25kt
Vidljivost 3000m
Prognoza Showers Snow Showers Rain 3.00mm precipitation
Oblaci Vertical Visibility of 0ft.
Broken Clouds 2200ft
Pritisak 1020
Promena No Significant change. Runway 22: Wet or puddles, 51-100% contamination, friction coefficient 0.55.
Neobrađeno UACC 221442Z 22013MPS 3000 SHSNRA SCT010 BKN022CB 02/M00 Q1020 R22/29//55 NOSIG RMK QFE734/0978

IFR

1°C / 0°C

[Više]
Vetar 220º 23kt
Vidljivost 1900m. Runway 22: Visual range is 2000m.
Prognoza Showers Snow Rain 3.00mm precipitation
Oblaci Vertical Visibility of 0ft.
Broken Clouds 2000ft
Pritisak 1020
Promena Temporary: Visibility 1000. Showers Snow Rain . Broken Clouds 1100ft. Cumulonimbus RMK QFE733/0978 . Runway 22: Wet or puddles, 51-100% contamination, friction coefficient 0.55.
Neobrađeno UACC 221400Z 22012MPS 1900 R22/P2000 SHSNRA SCT008 BKN020CB 01/00 Q1020 R22/29//55 TEMPO 1000 SHSNRA BKN011CB RMK QFE733/0978

LIFR

1°C / 0°C

[Više]
Vetar 220º 25kt
Vidljivost 1400m. Runway 22: Visual range is 2000m.
Prognoza Showers Snow Rain 3.00mm precipitation
Oblaci Vertical Visibility of 0ft.
Overcast 2000ft
Pritisak 1019
Promena Temporary: Visibility 1000. Showers Snow Rain . Broken Clouds 1100ft. Cumulonimbus RMK QFE733/0978 . Runway 22: Wet or puddles, 51-100% contamination, friction coefficient 0.55.
Neobrađeno UACC 221330Z 22013MPS 1400 R22/P2000 SHSNRA BKN008 OVC020CB 01/M00 Q1019 R22/29//55 TEMPO 1000 SHSNRA BKN011CB RMK QFE733/0978

LIFR

1°C / 0°C

[Više]
Vetar 220º 25kt
Vidljivost 1500m. Runway 22: Visual range is 2000m.
Prognoza Showers Snow Rain 3.00mm precipitation
Oblaci Vertical Visibility of 0ft.
Overcast 2100ft
Pritisak 1019
Promena Temporary: Visibility 3000. Showers Snow Rain . Broken Clouds 1100ft. Cumulonimbus RMK QFE733/0978 . Runway 22: Clear and dry, , friction coefficient 0.70.
Neobrađeno UACC 221313Z 22013MPS 1500 R22/P2000 SHSNRA BKN010 OVC021CB 01/M00 Q1019 R22/0///70 TEMPO 3000 SHSNRA BKN011CB RMK QFE733/0978

MVFR

2°C / -1°C

[Više]
Vetar 220º 25kt
Vidljivost 6000m
Prognoza Light Snow Light Rain 1.00mm precipitation
Oblaci Vertical Visibility of 0ft.
Overcast 2300ft
Pritisak 1019
Promena No Significant change. Runway 22: Clear and dry, , friction coefficient 0.70.
Neobrađeno UACC 221230Z 22013MPS 6000 -SNRA BKN014 OVC023 02/M01 Q1019 R22/0///70 NOSIG RMK QFE733/0978

MVFR

2°C / -1°C

[Više]
Vetar 220º 23kt
Vidljivost 7000m
Prognoza Light Snow Light Rain 1.00mm precipitation
Oblaci Vertical Visibility of 0ft.
Overcast 2500ft
Pritisak 1019
Promena No Significant change. Runway 22: Clear and dry, , friction coefficient 0.70.
Neobrađeno UACC 221200Z 22012MPS 7000 -SNRA BKN017 OVC025 02/M01 Q1019 R22/0///70 NOSIG RMK QFE733/0978

MVFR

3°C / -2°C

[Više]
Vetar 220º 25kt
Vidljivost >10km
Prognoza -
Oblaci Overcast 1900ft
Pritisak 1019
Promena Temporary: Visibility 5000. Light Showers Snow Rain . Broken Clouds 1100ft. Cumulonimbus RMK QFE733/0977 . Runway 22: Clear and dry, , friction coefficient 0.70.
Neobrađeno UACC 221130Z 22013MPS 9999 OVC019 03/M02 Q1019 R22/0///70 TEMPO 5000 -SHSNRA BKN011CB RMK QFE733/0977

MVFR

3°C / -2°C

[Više]
Vetar 220º 23kt
Vidljivost 9000m
Prognoza -
Oblaci Scattered Clouds 1600ft
Broken Clouds 3000ft
Pritisak 1019
Promena Temporary: Visibility 5000. Light Showers Snow Rain . Broken Clouds 1100ft. Cumulonimbus RMK QFE733/0977 . Runway 22: Clear and dry, , friction coefficient 0.70.
Neobrađeno UACC 221100Z 22012MPS 9000 SCT016 BKN030 03/M02 Q1019 R22/0///70 TEMPO 5000 -SHSNRA BKN011CB RMK QFE733/0977

VFR

3°C / -2°C

[Više]
Vetar 220º 27kt
Vidljivost 9000m
Prognoza -
Oblaci Scattered Clouds 1600ft
Broken Clouds 3600ft
Pritisak 1019
Promena Temporary: Visibility 5000. Light Showers Snow Rain . Broken Clouds 1100ft. Cumulonimbus RMK QFE733/0977 . Runway 22: Clear and dry, , friction coefficient 0.70.
Neobrađeno UACC 221030Z 22014MPS 9000 SCT016 BKN036 03/M02 Q1019 R22/0///70 TEMPO 5000 -SHSNRA BKN011CB RMK QFE733/0977

MVFR

3°C / -2°C

[Više]
Vetar 230º 29kt
Vidljivost 6000m
Prognoza Light Rain 1.00mm precipitation
Oblaci Vertical Visibility of 0ft.
Overcast 3000ft
Pritisak 1019
Promena No Significant change. Runway 22: Clear and dry, , friction coefficient 0.70.
Neobrađeno UACC 221000Z 23015MPS 6000 -RA SCT016 OVC030 03/M02 Q1019 R22/0///70 NOSIG RMK QFE733/0977

VFR

4°C / -3°C

[Više]
Vetar 230º 27kt Gust 39kt
Vidljivost >10km
Prognoza -
Oblaci Scattered Clouds 1500ft
Broken Clouds 4000ft
Pritisak 1019
Promena No Significant change. Runway 22: Clear and dry, , friction coefficient 0.70.
Neobrađeno UACC 220943Z 23014G20MPS 9999 SCT015 BKN040 04/M03 Q1019 R22/0///70 NOSIG RMK QFE733/0977

VFR

4°C / -3°C

[Više]
Vetar 230º 27kt
Vidljivost >10km
Prognoza -
Oblaci Scattered Clouds 1500ft
Broken Clouds 4000ft
Pritisak 1019
Promena No Significant change. Runway 22: Clear and dry, , friction coefficient 0.70.
Neobrađeno UACC 220930Z 23014MPS 9999 SCT015 BKN040 04/M03 Q1019 R22/0///70 NOSIG RMK QFE733/0977

VFR

4°C / -3°C

[Više]
Vetar 230º 27kt
Vidljivost >10km
Prognoza -
Oblaci Scattered Clouds 1500ft
Broken Clouds 4000ft
Pritisak 1019
Promena No Significant change. Runway 22: Clear and dry, , friction coefficient 0.70.
Neobrađeno UACC 220900Z 23014MPS 9999 SCT015 BKN040 04/M03 Q1019 R22/0///70 NOSIG RMK QFE733/0977

VFR

5°C / -5°C

[Više]
Vetar 230º 27kt Gust 37kt
Vidljivost >10km
Prognoza -
Oblaci Scattered Clouds 1500ft
Broken Clouds 4000ft
Pritisak 1019
Promena No Significant change. Runway 22: Clear and dry, , friction coefficient 0.70.
Neobrađeno UACC 220830Z 23014G19MPS 9999 SCT015 BKN040 05/M05 Q1019 R22/0///70 NOSIG RMK QFE733/0977

VFR

4°C / -5°C

[Više]
Vetar 230º 25kt Gust 35kt
Vidljivost >10km
Prognoza -
Oblaci Scattered Clouds 1500ft
Broken Clouds 4000ft
Pritisak 1019
Promena No Significant change. Runway 22: Clear and dry, , friction coefficient 0.70.
Neobrađeno UACC 220800Z 23013G18MPS 9999 SCT015 BKN040 04/M05 Q1019 R22/0///70 NOSIG RMK QFE733/0977

VFR

5°C / -5°C

[Više]
Vetar 230º 25kt
Vidljivost >10km
Prognoza -
Oblaci Scattered Clouds 1400ft
Broken Clouds 3600ft
Pritisak 1019
Promena No Significant change. Runway 22: Clear and dry, , friction coefficient 0.70.
Neobrađeno UACC 220730Z 23013MPS 9999 SCT014 BKN036 05/M05 Q1019 R22/0///70 NOSIG RMK QFE733/0977

VFR

4°C / -4°C

[Više]
Vetar 230º 25kt
Vidljivost >10km
Prognoza -
Oblaci Scattered Clouds 1200ft
Broken Clouds 3600ft
Pritisak 1019
Promena No Significant change. Runway 22: Clear and dry, , friction coefficient 0.70.
Neobrađeno UACC 220700Z 23013MPS 9999 SCT012 BKN036 04/M04 Q1019 R22/0///70 NOSIG RMK QFE733/0977

VFR

4°C / -4°C

[Više]
Vetar 220º 27kt
Vidljivost >10km
Prognoza -
Oblaci Scattered Clouds 1000ft
Broken Clouds 3600ft
Pritisak 1019
Promena No Significant change. Runway 22: Clear and dry, , friction coefficient 0.70.
Neobrađeno UACC 220630Z 22014MPS 9999 SCT010 BKN036 04/M04 Q1019 R22/0///70 NOSIG RMK QFE733/0977

VFR

3°C / -5°C

[Više]
Vetar 230º 25kt
Vidljivost >10km
Prognoza -
Oblaci Few Clouds 3000ft
Broken Clouds 4300ft
Pritisak 1019
Promena No Significant change. Runway 22: Clear and dry, , friction coefficient 0.70.
Neobrađeno UACC 220600Z 23013MPS 9999 FEW030CB BKN043 03/M05 Q1019 R22/0///70 NOSIG RMK QFE733/0977

VFR

3°C / -4°C

[Više]
Vetar 220º 23kt Gust 33kt
Vidljivost >10km
Prognoza -
Oblaci Scattered Clouds 3000ft
Broken Clouds 4300ft
Pritisak 1019
Promena No Significant change. Runway 22: Clear and dry, , friction coefficient 0.70.
Neobrađeno UACC 220543Z 22012G17MPS 9999 SCT030CB BKN043 03/M04 Q1019 R22/0///70 NOSIG RMK QFE733/0977

VFR

3°C / -5°C

[Više]
Vetar 220º 21kt
Vidljivost >10km
Prognoza -
Oblaci Scattered Clouds 3000ft
Broken Clouds 4300ft
Pritisak 1019
Promena No Significant change. Runway 22: Clear and dry, , friction coefficient 0.70.
Neobrađeno UACC 220530Z 22011MPS 9999 SCT030CB BKN043 03/M05 Q1019 R22/0///70 NOSIG RMK QFE733/0977

VFR

3°C / -4°C

[Više]
Vetar 220º 19kt Gust 29kt
Vidljivost >10km
Prognoza -
Oblaci Scattered Clouds 2600ft
Broken Clouds 3600ft
Pritisak 1019
Promena No Significant change. Runway 22: Clear and dry, , friction coefficient 0.70.
Neobrađeno UACC 220512Z 22010G15MPS 9999 SCT026CB BKN036 03/M04 Q1019 R22/0///70 NOSIG RMK QFE733/0977

VFR

2°C / -4°C

[Više]
Vetar 210º 19kt
Vidljivost >10km
Prognoza -
Oblaci Scattered Clouds 1600ft
Broken Clouds 3600ft
Pritisak 1019
Promena No Significant change. Runway 22: Clear and dry, , friction coefficient 0.70.
Neobrađeno UACC 220500Z 21010MPS 9999 SCT016CB BKN036 02/M04 Q1019 R22/0///70 NOSIG RMK QFE733/0977

VFR

2°C / -3°C

[Više]
Vetar 220º 19kt
Vidljivost >10km
Prognoza -
Oblaci Scattered Clouds 1600ft
Broken Clouds 3600ft
Pritisak 1019
Promena No Significant change. Runway 22: Clear and dry, , friction coefficient 0.70.
Neobrađeno UACC 220430Z 22010MPS 9999 SCT016 BKN036CB 02/M03 Q1019 R22/0///70 NOSIG RMK QFE733/0977

TAF za 51.02°S 71.47°I (UACC)

From till


Maximum Temperature 9ºC on . Minimum Temperature 0ºC on .
From till Wind 210º 23kt. Visibility 10km or more. Broken Clouds 1100ft. Broken Clouds 3000ft.
Temporarly from till Wind 220º 23kt. Gust 33kt. Visibility 2000m. Showers Snow Showers Rain . Broken Clouds 700ft. Broken Clouds 2000ft.
Becoming from till Wind 220º 17kt. Visibility 10km or more. Broken Clouds 1100ft. Broken Clouds 3000ft.
Temporarly from till Visibility 3100m. Light Showers Rain Light Showers Snow . Scattered Clouds 500ft. Broken Clouds 1100ft.
Becoming from till Wind 230º 23kt. Visibility 10km or more. Broken Clouds 1100ft. Broken Clouds 3000ft.
Temporarly from till Wind 230º 23kt. Gust 33kt.

Neobrađeno: TAF AMD UACC 221327Z 2213/2312 21012MPS 9999 BKN011 BKN030 TX09/2309Z TN00/2218Z TEMPO 2213/2220 22012G17MPS 2000 SHSNRA BKN007 BKN020CB BECMG 2220/2222 22009MPS TEMPO 2220/2303 3100 -SHRASN SCT005 BKN011CB BECMG 2303/2305 23012MPS TEMPO 2303/2312 23012G17MPS

Trenutni satelitski snimci i slike kiše za 51.02°S 71.47°I

Marker lokacije postavljen je na 51.02°S 71.47°I. [Više]

Satelitski snimci u realnom vremenu kombinuju vidljivu svetlost tokom dana sa infracrvenim zračenjem tokom noći. Noću slika nije tamna jer infracrveno zračenje može otkriti temperaturne razlike. Nažalost, niski oblaci i magla teško se mogu razlikovati od temperature zemlje tako da mogu biti skoro nevidljivi tokom noći. Meteosat satelitski snimci za Evropu se ažuriraju u realnom vremenu na svakih 5 minuta. Slnimci GOES-16/GOES-17 (Severna i Južna Amerika) and Himawari (Azia) ažuriraju se na svakih 10 minuta.

Autorsko pravo 2021 EUMETSAT / meteoblue. / Autorsko pravo 2021 meteoblue

Radar i padavine kratka prognoza za 51.02°S 71.47°I

Rominjati
Svjetlo
Umjereno
Teška
Vrlo teško
Zdravo

Marker lokacije postavljen je na 51.02°S 71.47°I. Ova animacija prikazuje radar padavina za poslednji sat, kao i 1h prognozu. Пљусак кише или слаб снег може бити невидљив за радар. Интензитет падавина је кодиран у боји, у распону од светло плаве до наранџасте.